Orbital Elements at Epoch 2459000.5 (2020-May-31.0) TDB
Reference: JPL 19 (heliocentric ecliptic J2000)
Element | Value | Uncertainty (1-sigma) | Units |
e | .1991200436415022 | 6.1423e-08 | |
a | 3.13350369561406 | 3.7806e-08 | au |
q | 2.50956030299258 | 1.9793e-07 | au |
i | 18.43613255431775 | 6.959e-06 | deg |
node | 77.02096785943526 | 1.7541e-05 | deg |
peri | 194.2349813332534 | 2.3406e-05 | deg |
M | .4631207597502311 | 1.9975e-05 | deg |
tp | 2458997.893633457825 (2020-May-28.39363346) | 0.00011239 | TDB |
period | 2026.020072365587 5.55 | 3.6666e-05 1.004e-07 | d yr |
n | .1776882691885983 | 3.2157e-09 | deg/d |
Q | 3.75744708823554 | 4.5334e-08 | au |
|
| | Orbit Determination Parameters
Additional Information
|